Location: Beaurevoir
(49.9971°N, 3.3085°E)
Time: 14:43:57
(UTC+00:00)

USA 234 - Pass Details

Date: 23 May 2024
Orbit: 1100 x 1107 km, 123.0° (Epoch: 16 June)

Event Time Altitude Azimuth Distance (km) Brightness Sun altitude
Exits shadow 00:56:34 13° 152° (SSE) 2,750 5.0 -17.5°
Maximum altitude 01:02:15 48° 224° (SW) 1,412 3.4 -17.2°
Drops below altitude 10° 01:08:33 10° 297° (WNW) 2,964 5.6 -16.9°
Sets 01:11:09 0° 303° (WNW) 3,924 6.3 -16.7°
